Regional Weather Roundup
Issued by NWS San Angelo, TX

Home | Current Version | Previous Version | Text Only | Print | Product List | Glossary On
Versions: 1 2 3 4 5 6 7 8 9 10 11 12 13 14 15 16 17 18 19 20 21 22 23 24 25 26 27 28 29 30 31 32 33 34 35 36 37 38 39 40 41 42 43 44 45 46 47 48 49 50
054
ASUS44 KSJT 261810
RWRSJT
WEST CENTRAL TEXAS REGIONAL WEATHER ROUNDUP
NATIONAL WEATHER SERVICE SAN ANGELO TX
100 PM CDT SUN MAR 26 2017

NOTE: "FAIR" INDICATES FEW OR NO CLOUDS BELOW 12,000 FEET WITH NO
SIGNIFICANT WEATHER AND/OR OBSTRUCTIONS TO VISIBILITY.

TXZ049-054-064>066-071>073-076>078-098-099-113-114-127-128-139-140-
154-155-168>170-261900
...LOCATIONS ACROSS WEST CENTRAL TEXAS...

CITY           SKY/WX    TMP DP  RH WIND       PRES   REMARKS
SAN ANGELO     SUNNY     83  50  31 W14G22    29.81F
ABILENE        MOSUNNY   78  56  46 SW15G29   29.80F
DYESS AFB      PTSUNNY   79  58  48 SW17G25   29.78F
JUNCTION       SUNNY     84  55  36 SW18G25   29.83F
SWEETWATER     PTSUNNY   73  36  25 W7        29.85F
BROWNWOOD      SUNNY     81  52  36 S15G25    29.81F
COLEMAN        PTCLDY    82  51  34 S18       29.80F
SONORA         SUNNY     81  54  39 SW12G18   29.89F
OZONA            N/A     81  46  30 MISG      29.88F
BRADY          NOT AVBL
$$

TEXAS PANHANDLE/OKLAHOMA PANHANDLE

CITY           SKY/WX    TMP DP  RH WIND       PRES   REMARKS
AMARILLO       SUNNY     72  27  18 W23G30    29.72S
BORGER         SUNNY     71  30  21 W18G37    29.69F
CANADIAN       MOSUNNY   68  40  34 S13G22    29.69S
DALHART        MOSUNNY   66  36  32 NW17G26   29.73R
DUMAS          CLEAR     66  34  30 NW21G33   29.72S
GUYMON         NOT AVBL
HEREFORD       CLEAR     71  28  20 W25G33    29.77R
PAMPA          CLEAR     73  31  21 W22       29.70F
PERRYTON       SUNNY     69  35  28 SW13G24   29.68S
$$

SOUTHERN PANHANDLE/SOUTH PLAINS/ROLLING PLAINS

CITY           SKY/WX    TMP DP  RH WIND       PRES   REMARKS
LUBBOCK        MOSUNNY   74  26  16 W22G31    29.79F
SNYDER         PTSUNNY   70  36  28 W7        29.83S
CHILDRESS      CLOUDY    67  39  35 S12       29.75F
SEMINOLE       PTCLDY    72  28  19 W15G21    29.87F
$$

PERMIAN BASIN

CITY           SKY/WX    TMP DP  RH WIND       PRES   REMARKS
MIDLAND        PTSUNNY   73  27  18 W5        29.88F
ODESSA           N/A     71  27  19 N6        29.89S
WINK           SUNNY     75  27  17 SW13      29.88F
$$

FAR WEST/SOUTHWEST MOUNTAINS/TRANS PECOS

CITY           SKY/WX    TMP DP  RH WIND       PRES   REMARKS
ALPINE         CLEAR     74  20  13 W22       30.03F
DRYDEN           N/A     83  34  17 S8        29.84F
EL PASO        MOSUNNY   69  24  18 W17G32    29.96F
FORT STOCKTON  MOSUNNY   78  26  14 W13       29.91S
GUADALUPE PASS   N/A    N/A N/A N/A MISG        N/A
MARFA          SUNNY     71  22  15 W14G28    30.02S
PECOS          CLEAR     75  29  18 CALM      29.88F
$$

DALLAS/FORT WORTH METROPLEX

CITY           SKY/WX    TMP DP  RH WIND       PRES   REMARKS
DFW AIRPORT    PTSUNNY   79  63  57 S18       29.84F
FTW MEACHAM    SUNNY     81  60  48 SE18G25   29.81F
DAL-EXECUTIVE  SUNNY     77  63  61 S17G23    29.85F
GRAND PRAIRIE  NOT AVBL
ADDISON        NOT AVBL
MESQUITE       PTCLDY    75  63  64 SE15      29.88F
LANCASTER      CLEAR     75  63  65 S13G20    29.87F
$$

NORTH CENTRAL TEXAS

CITY           SKY/WX    TMP DP  RH WIND       PRES   REMARKS
SHRMAN/DENISON CLEAR     73  59  61 S13       29.87F
GAINESVILLE    MOSUNNY   73  59  62 S15G22    29.85F
BRIDGEPORT     PTCLDY    79  56  45 S14G23    29.81F
DENTON         SUNNY     77  62  59 S16G24    29.83F
WAXAHACHIE     PTCLDY    77  64  65 S14G22    29.87F
GRANBURY       CLEAR     79  60  52 SE16G23   29.82F
$$

WESTERN NORTH TEXAS

CITY           SKY/WX    TMP DP  RH WIND       PRES   REMARKS
WICHITA FALLS  PTSUNNY   75  56  51 S18       29.76F
VERNON         CLOUDY    73  47  38 S20G25    29.75F
BRECKENRIDGE   PTCLDY    81  54  38 S21G31    29.78F HAZE
COMANCHE       SUNNY     81  54  38 S23       29.82S
$$

CENTRAL AND SOUTH CENTRAL TEXAS

CITY           SKY/WX    TMP DP  RH WIND       PRES   REMARKS
AUSTIN/BERGSTM PTSUNNY   81  63  54 S16G23    29.86F
WACO           SUNNY     79  65  62 S14       29.85F
HILLSBORO      CLEAR     76  64  67 S16G22    29.87F
TEMPLE         SUNNY     79  64  60 S23       29.85F
KILLEEN-GRAY   MOSUNNY   79  60  51 SE21G26   29.84F
FORT HOOD      SUNNY     79  61  52 S16G22    29.81F
GEORGETOWN     SUNNY     81  59  47 SE16G23   29.84F
LAGO VISTA     FAIR      80  60  49 S7G22     29.87F
SAN MARCOS     SUNNY     81  63  54 S12G21    29.87F
NEW BRAUNFELS  SUNNY     82  61  48 S18       29.85F
RANDOLPH AFB   SUNNY     82  61  47 S14       29.85F
SAN ANTONIO    MOSUNNY   80  61  52 S13       29.86F
STINSON        SUNNY     83  60  45 SE13      29.84F
PLEASANTON     NOT AVBL
LA GRANGE      SUNNY     82  65  56 S16       29.85F
GIDDINGS       CLEAR     80  63  55 S14       29.88F
$$

EAST TEXAS

CITY           SKY/WX    TMP DP  RH WIND       PRES   REMARKS
PARIS          SUNNY     75  54  46 S16       29.92F
CLARKSVILLE    NOT AVBL
TYLER          SUNNY     77  62  59 S10       29.90F
LONGVIEW       MOSUNNY   76  64  66 S12       29.92F
PALESTINE      CLEAR     77  63  60 SE12G17   29.91F
NACOGDOCHES    MOSUNNY   79  64  61 S14       29.92F
$$

TEXAS HILL COUNTRY AND EDWARDS PLATEAU

CITY           SKY/WX    TMP DP  RH WIND       PRES   REMARKS
LLANO          CLEAR     84  52  32 S13G20    29.86F
HORSESHOE BAY  FAIR      81  56  42 S10G20    29.86F
KERRVILLE      SUNNY     79  60  51 S17G23    29.87F
FREDERICKSBRG  SUNNY     81  48  31 SW18G24   29.85F
ROCKSPRINGS    CLEAR     79  59  50 S14       29.90S
HONDO          SUNNY     83  61  47 S12       29.85F
UVALDE         CLEAR     79  62  55 S7        29.85F
DEL RIO        SUNNY     78  61  55 VRB5      29.82F
$$

SOUTHEAST TEXAS

CITY           SKY/WX    TMP DP  RH WIND       PRES   REMARKS
COLLEGE STN    MOSUNNY   81  65  58 SE16G25   29.89F
CALDWELL       NOT AVBL
CROCKETT       CLEAR     77  64  65 S10G16    29.94F
BRENHAM        MOSUNNY   82  65  57 SE12G21   29.89F
HUNTSVILLE     MOSUNNY   80  62  54 VRB7      29.91F
CONROE         MOSUNNY   80  64  58 S17       29.91F
HOUSTON BUSH   MOSUNNY   81  62  52 S16G25    29.91F
HOUSTON HOBBY  MOSUNNY   82  66  58 S12G23    29.91F
PERLAND        MOSUNNY   83  65  54 S14G22    29.93F
WHARTON        CLEAR     83  60  45 S15       29.90F
$$

THE UPPER TEXAS COAST

CITY           SKY/WX    TMP DP  RH WIND       PRES   REMARKS
ORANGE         PTCLDY    78  67  69 S13G18    29.99F
PORT ARTHUR    PTSUNNY   81  66  60 S15G24    29.95F
GALVESTON      PTSUNNY   79  72  79 SE13      29.95F
ANGLETON       MOSUNNY   82  69  64 S16       29.91F
BAY CITY       CLEAR     82  67  61 S14       29.90F
$$

TEXAS COASTAL BEND, RIO GRANDE PLAINS DEEP SOUTH TEXAS

CITY           SKY/WX    TMP DP  RH WIND       PRES   REMARKS
VICTORIA       SUNNY     82  66  58 S22       29.86F
BEEVILLE       FAIR      84  67  56 SE13G21   29.86S
ROCKPORT       SUNNY     80  69  69 SE18G28   29.87F
PORT ARANSAS   CLEAR     77  70  78 SE13      29.87F
PORT LAVACA    PTCLDY    81  71  70 SE20G26   29.87F
CORPUS CHRISTI MOSUNNY   83  68  60 SE25G33   29.85F
KINGSVILLE NAS SUNNY     86  70  58 SE22G29   29.83F
COTULLA        SUNNY     86  60  41 SE9       29.82F
LAREDO         SUNNY     87  63  44 SE16      29.81F
BROWNSVILLE    NOT AVBL
PORT ISABEL    PTSUNNY   84  69  60 SE28G37   29.84F
HEBBRONVILLE   CLEAR     83  60  44 S17       29.83F
MCALLEN        SUNNY     88  68  51 SE24G35   29.83F
WESLACO        MOSUNNY   86  68  53 S21G30    29.82F
FALFURRIAS     CLEAR     86  61  42 SE12G22   29.82F
EDINBURG       CLEAR     89  65  45 SE16G25   29.83S
$$




USA.gov is the U.S. government's official web portal to all federal, state and local government web resources and services.